This is the latest recevied weather packets stored in our database for station/object DW9280. If no packets are shown the sender has not sent any weather packets the latest 1 day(s).
| Time | Temp. | Humidity | Pressure | Rain* | Wind** | Luminosity | Snow |
|---|---|---|---|---|---|---|---|
| 1778006288 | 11.67° C | 76% | 1010.1 hPa | 0 mm | 2.68 m/s, 17° | 12 W/m² | - |
| 1778005986 | 11.67° C | 75% | 1010.2 hPa | 0 mm | 2.68 m/s, 9° | 23 W/m² | - |
| 1778005687 | 11.67° C | 75% | 1010.1 hPa | 0 mm | 2.68 m/s, 349° | 28 W/m² | - |
| 1778005387 | 11.67° C | 75% | 1010.1 hPa | 0 mm | 3.13 m/s, 22° | 35 W/m² | - |
| 1778005212 | 11.67° C | 75% | 1010.1 hPa | 0 mm | 2.24 m/s, 33° | 35 W/m² | - |
| 1778004788 | 11.67° C | 75% | 1010.1 hPa | 0 mm | 2.24 m/s, 39° | 54 W/m² | - |
| 1778004488 | 12.22° C | 75% | 1010.1 hPa | 0 mm | 2.68 m/s, 350° | 51 W/m² | - |
| 1778004188 | 12.22° C | 74% | 1010.1 hPa | 0 mm | 2.68 m/s, 13° | 54 W/m² | - |
| 1778003886 | 12.22° C | 75% | 1010.1 hPa | 0 mm | 2.24 m/s, 19° | 69 W/m² | - |
| 1778003588 | 12.22° C | 75% | 1010.2 hPa | 0 mm | 2.24 m/s, 25° | 76 W/m² | - |
| 1778003289 | 12.22° C | 74% | 1010.2 hPa | 0 mm | 2.68 m/s, 5° | 79 W/m² | - |
| 1778002986 | 12.22° C | 74% | 1010.2 hPa | 0 mm | 2.68 m/s, 38° | 79 W/m² | - |
| 1778002689 | 12.22° C | 74% | 1010.2 hPa | 0 mm | 2.68 m/s, 339° | 84 W/m² | - |
| 1778002390 | 12.78° C | 73% | 1010.2 hPa | 0 mm | 2.24 m/s, 324° | 81 W/m² | - |
| 1778002092 | 12.78° C | 73% | 1010.2 hPa | 0 mm | 2.24 m/s, 350° | 74 W/m² | - |
| 1778001786 | 12.78° C | 72% | 1010.1 hPa | 0 mm | 2.68 m/s, 40° | 91 W/m² | - |
| 1778001487 | 12.78° C | 72% | 1010.2 hPa | 0 mm | 2.68 m/s, 46° | 90 W/m² | - |
| 1778001188 | 12.78° C | 73% | 1010.1 hPa | 0 mm | 2.68 m/s, 5° | 118 W/m² | - |
| 1778000882 | 13.33° C | 73% | 1010.2 hPa | 0 mm | 2.68 m/s, 12° | 97 W/m² | - |
| 1778000589 | 13.33° C | 72% | 1010.2 hPa | 0 mm | 2.68 m/s, 348° | 134 W/m² | - |
| 1778000288 | 13.33° C | 72% | 1010.2 hPa | 0 mm | 3.13 m/s, 342° | 172 W/m² | - |
| 1777999988 | 13.33° C | 73% | 1010.2 hPa | 0 mm | 3.13 m/s, 355° | 197 W/m² | - |
| 1777999688 | 13.33° C | 73% | 1010.2 hPa | 0 mm | 3.13 m/s, 12° | 227 W/m² | - |
| 1777999511 | 13.33° C | 73% | 1010.2 hPa | 0 mm | 3.13 m/s, 9° | 246 W/m² | - |
| 1777999212 | 13.33° C | 73% | 1010.2 hPa | 0 mm | 3.13 m/s, 355° | 216 W/m² | - |
* Rain latest hour (hover to see other rain measurements)
** Current wind speed in m/s (hover to see current wind gust speed)